Location: Newark
(51.0500°N, 12.4500°E)
Time: 10:10:19
(UTC+00:00)

Vanguard 1 - Visible Passes

Search period start: 27 January 2021 00:00
Search period end: 06 February 2021 00:00
Orbit: 648 x 3834 km, 34.3° (Epoch: 25 January)

Date Brightness Start Highest point End Pass type
(mag) Time Alt. Az. Time Alt. Az. Time Alt. Az.
27 Jan 14.0 18:03:22 10° W 18:18:58 24° SW 18:32:15 10° S visible
28 Jan 14.0 15:57:54 10° W 16:17:29 39° SSW 16:35:38 10° SSE visible
28 Jan 14.1 18:26:03 10° W 18:38:56 18° SW 18:50:14 10° SSW visible
29 Jan 14.0 16:19:11 10° W 16:37:56 34° SSW 16:55:19 10° SSE visible
29 Jan 14.3 18:50:18 10° WSW 18:58:46 13° SW 19:06:34 10° SSW visible
30 Jan 14.1 16:40:43 10° W 16:58:16 30° SW 17:14:37 10° SSE visible
31 Jan 14.2 17:02:38 10° W 17:18:28 24° SW 17:33:23 10° S visible
01 Feb 14.4 17:25:11 10° W 17:38:34 19° SW 17:51:19 10° SSW visible
02 Feb 14.6 17:49:09 10° WSW 17:58:33 14° SW 18:07:41 10° SSW visible
05 Feb 14.7 16:25:22 10° W 16:38:07 19° SW 16:51:23 10° S visible
